STARLINK-31957, 59926

Orbit data source: Space-Track

STARLINK-31957, 59926 is a payload satellite owned by SpaceX/Seattle (US) in LEO that was launched on Sat, 01 Jun 2024 UTC via an FALCON 9 launch vehicle from the Air Force Eastern Test Range (AFETR). Payload-class satellites include a variety of spacecraft equipped with specific instruments for various scientific and technological missions. These include communications satellites like Starlink; space stations such as the ISS; scientific satellites like the Hubble; Earth observation satellites from companies like Planet Labs, Umbra, and HawkEye 360; GPS; miniature CubeSats for education and research; and military/defense satellites.

Loading next visibility...
Identifier
59926, 2024-106E
Orbit
LEO
Country
Flag of USUS
Related business
Manufacturer
SpaceX/Seattle
Mission
Operational Commercial Communications
Bus & Motor
STARLINK V2M, Unknown motor
Mass
730 kg wet, ~700 kg dry
Launch date (UTC)
2024-06-01 (2 years ago)
Launch vehicle
FALCON 9
Launch site
Air Force Eastern Test Range (AFETR)
Object type
Payload
Rocket body
Debris
Shape & HBR
Box + 2 Pan, 17.7 m
Radar Cross Section
33.884 m², Large (>1 m²)

Expand to show TLE details & history
Last TLE update: 13 hours ago

TLE from 13 hours ago
0 STARLINK-31957
1 59926U 24106E   26035.64664749 -.00000103  00000-0  57960-5 0  9993
2 59926  43.0024 158.7627 0002056 285.0815  74.9809 15.27571611 95528
Epoch: 2026-02-04T15:31Z
TLE epoch observation values (Epoch: 2026-02-04T15:31:10.343Z)
Latitude
-0.00001°
Longitude
151.15936°
Altitude
482.485 km
Speed
7.626 km/s
True Right ascension
10h 35m 03s
True Declination
0° 00' 00"
Sunlit
Object was in full shadow at epoch
Visualization orbit readout
Latitude
Unknown
Longitude
Unknown
Altitude
Unknown
Speed
Unknown
Apparent Right ascension
Unknown
Apparent Declination
Unknown
Sunlit
N/A
Visualization observer readout
Local Sidereal Time
06:14:14
Azimuth
Unknown
Elevation
Unknown
Doppler factor
Unknown
Orbital elements
Apogee altitude
486.43 km
Perigee altitude
483.608 km
Semi-major axis
6,863.156 km
Eccentricity
0.00021
Inclination
43.0024°
RAAN
158.7627°
Arg. of periapsis
285.0815°
True anomaly
75.00366°
Mean anomaly
74.9809°
Eccentric anomaly
74.99228°
Mean motion
3.81731 °/min
Orbital period
94.31 mins
BSTAR
0.000005796
Loading maneuver chart data...
Computing Atmospheric mass density...
Loading historical data...
Loading historical data...
Loading historical data...
Loading historical data...
Loading historical data...
Loading historical data...
Loading historical data...

Documentation

Showing up to 5 results
|